EW4806 Weather Reports


Display with metric or nautical units.
time (UTC)temp
F
wind
direction
speed
MPH
gust
MPH
rain 1hr
in
rain 24hr
in
rain mn
in
humidity
%
barometer
mb
20260903170531 55 288 0.0 1.0 0.00 0.70 0.00 85 1012.4
20260903165030 55 290 0.0 1.0 0.00 0.70 0.00 85 1012.5
20260903163530 55 289 0.0 0.0 0.00 0.70 0.00 86 1012.7
20260903162031 54 284 0.0 0.0 0.00 0.70 0.00 87 1012.8
20260903160530 54 100 0.0 0.0 0.00 0.70 0.00 87 1013.0
20260903155030 53 79 0.0 0.0 0.00 0.70 0.00 87 1013.2
20260903153530 53 287 0.0 0.0 0.00 0.70 0.00 87 1013.4
20260903152027 53 359 0.0 0.0 0.00 0.70 0.00 87 1013.4
20260903150529 52 283 0.0 0.0 0.00 0.70 0.00 87 1013.3
20260903145026 52 283 0.0 0.0 0.00 0.70 0.00 87 1013.2
20260903144215 52 283 0.0 0.0 0.00 0.70 0.00 87 1013.0
20260903142733 52 359 0.0 0.0 0.00 0.70 0.00 87 1013.0
20260903140522 52 301 0.0 0.0 0.00 0.70 0.00 87 1013.0
20260903135021 52 359 0.0 0.0 0.00 0.70 0.00 87 1012.8
20260903133518 52 301 0.0 0.0 0.00 0.70 0.00 87 1012.7
20260903132018 52 300 0.0 0.0 0.00 0.70 0.00 87 1012.7
20260903130516 52 129 0.0 0.0 0.00 0.70 0.00 87 1012.8
20260903125016 52 124 0.0 0.0 0.00 0.70 0.00 87 1012.7
20260903124219 52 126 0.0 0.0 0.00 0.70 0.00 87 1012.8
20260903122016 52 124 0.0 0.0 0.00 0.70 0.00 87 1012.8
20260903120511 52 125 0.0 0.0 0.00 0.70 0.00 87 1012.8
20260903115614 52 98 0.0 0.0 0.00 0.70 0.00 87 1012.8
20260903115030 52 125 0.0 0.0 0.00 0.70 0.00 87 1012.8
20260903112707 52 97 0.0 0.0 0.00 0.70 0.00 87 1012.9
20260903110510 52 13 0.0 0.0 0.00 0.70 0.00 87 1013.1
20260903105009 52 12 0.0 0.0 0.00 0.70 0.00 87 1013.2
20260903104217 52 9 0.0 0.0 0.00 0.70 0.00 87 1013.3
20260903102009 52 149 0.0 0.0 0.00 0.70 0.00 87 1013.3
20260903100508 52 163 0.0 0.0 0.00 0.70 0.00 87 1013.3
20260903095007 52 162 0.0 0.0 0.00 0.70 0.00 87 1013.3
20260903093507 52 162 0.0 0.0 0.00 0.70 0.00 87 1013.3
20260903092008 53 162 0.0 0.0 0.00 0.70 0.00 87 1013.3
20260903091206 53 162 0.0 0.0 0.00 0.70 0.00 87 1013.4
20260903085005 53 163 0.0 0.0 0.00 0.70 0.00 86 1013.4
20260903084203 54 164 0.0 0.0 0.00 0.70 0.00 87 1013.4
20260903082006 54 163 0.0 0.0 0.00 0.70 0.00 87 1013.3
20260903080505 54 163 0.0 0.0 0.00 0.70 0.00 86 1013.2
20260903075003 54 164 0.0 0.0 0.00 0.70 0.00 86 1013.1
20260903073501 54 162 0.0 0.0 0.00 0.70 0.00 86 1013.2
20260903072001 54 164 0.0 0.0 0.00 0.70 0.00 86 1013.2
20260903070501 55 164 0.0 0.0 0.00 0.70 0.00 86 1013.0
20260903065002 55 165 0.0 0.0 0.00 0.70 0.70 86 1013.1
20260903063500 54 164 0.0 0.0 0.01 0.70 0.70 85 1013.0
20260903061959 54 164 0.0 1.0 0.01 0.70 0.70 85 1013.0
20260903060459 55 150 0.0 1.0 0.02 0.70 0.70 86 1013.1
20260903055000 55 125 0.0 1.0 0.02 0.70 0.70 86 1013.2
20260903053501 55 121 0.0 1.0 0.01 0.69 0.69 86 1013.3
20260903052653 55 131 0.0 1.0 0.01 0.69 0.69 86 1013.2
20260903050501 55 359 0.0 1.0 0.01 0.68 0.68 85 1013.2
20260903045000 55 270 0.0 2.0 0.02 0.68 0.68 84 1013.1
20260903043458 56 319 1.0 3.0 0.02 0.68 0.68 84 1012.9
20260903041957 57 359 1.0 2.0 0.03 0.68 0.68 85 1012.6
20260903040456 57 222 0.0 0.0 0.03 0.67 0.67 86 1012.4
20260903034954 57 222 0.0 0.0 0.03 0.66 0.67 86 1012.1
20260903034152 57 221 0.0 1.0 0.04 0.66 0.66 86 1012.0
20260903031949 57 97 0.0 1.0 0.05 0.65 0.65 87 1011.9
20260903030447 57 98 0.0 1.0 0.05 0.64 0.64 87 1011.7
20260903024947 57 95 0.0 1.0 0.05 0.63 0.63 87 1011.6
20260903023447 57 96 0.0 0.0 0.06 0.62 0.62 87 1011.6
20260903021948 57 75 0.0 0.0 0.06 0.60 0.61 87 1011.7
20260903021157 57 73 0.0 0.0 0.07 0.59 0.59 86 1011.8
20260903014945 57 331 0.0 0.0 0.08 0.58 0.58 86 1011.8
20260903013449 57 116 0.0 1.0 0.08 0.56 0.56 86 1011.8
20260903011944 57 24 0.0 0.0 0.08 0.54 0.54 86 1011.6
20260903010443 57 23 0.0 1.0 0.08 0.52 0.52 86 1011.5
20260903004943 57 156 0.0 1.0 0.08 0.50 0.50 86 1011.4
20260903003442 57 359 0.0 1.0 0.07 0.48 0.48 86 1011.6
20260903001941 56 354 0.0 0.0 0.07 0.46 0.46 85 1011.2
20260903000439 57 359 0.0 0.0 0.07 0.44 0.44 85 1011.2
20260902235644 57 354 0.0 0.0 0.07 0.42 0.42 85 1011.3
20260902233440 56 359 0.0 0.0 0.08 0.41 0.41 85 1011.3
20260902231939 57 359 0.0 0.0 0.08 0.39 0.39 85 1011.3
20260902230439 56 359 0.0 1.0 0.08 0.37 0.37 86 1011.5
20260902224939 56 332 0.0 0.0 0.08 0.35 0.35 85 1011.6
20260902223439 57 359 0.0 0.0 0.08 0.33 0.33 85 1011.4
20260902221939 57 359 0.0 0.0 0.08 0.31 0.31 85 1011.5
20260902220441 57 331 0.0 0.0 0.08 0.29 0.29 85 1011.3
20260902214940 57 331 0.0 0.0 0.09 0.27 0.27 85 1011.5
20260902213438 57 359 0.0 1.0 0.09 0.25 0.25 85 1011.6
20260902211935 57 285 0.0 1.0 0.10 0.23 0.23 84 1011.3
20260902210435 57 283 0.0 1.0 0.10 0.21 0.21 84 1011.2
20260902204935 57 359 0.0 1.0 0.09 0.18 0.19 84 1011.1
20260902204138 58 284 0.0 1.0 0.08 0.16 0.16 83 1011.1
20260902201935 58 293 0.0 0.0 0.06 0.13 0.13 82 1011.2
20260902200432 58 294 0.0 1.0 0.05 0.11 0.11 81 1011.2
20260902194931 58 301 0.0 1.0 0.04 0.09 0.09 81 1011.4
20260902193432 58 299 0.0 1.0 0.04 0.08 0.08 81 1011.5
20260902191930 58 320 0.0 0.0 0.03 0.07 0.07 80 1011.4
20260902190431 58 83 0.0 0.0 0.03 0.06 0.06 80 1011.2
20260902184929 58 83 0.0 0.0 0.04 0.05 0.05 80 1011.5
20260902183426 58 92 0.0 0.0 0.03 0.04 0.04 80 1011.4
20260902181922 57 114 0.0 0.0 0.03 0.04 0.04 79 1011.5
20260902180421 58 114 0.0 0.0 0.03 0.03 0.03 80 1011.4
20260902174922 57 89 0.0 0.0 0.01 0.01 0.01 78 1011.3
20260902173421 57 61 0.0 0.0 0.01 0.01 0.01 79 1011.2
20260902172623 57 116 0.0 1.0 0.01 0.01 0.01 77 1010.9